TimePST,TemperatureF,Dew PointF,Humidity,Sea Level PressureIn,VisibilityMPH,Wind Direction,Wind SpeedMPH,Gust SpeedMPH,PrecipitationIn,Events,Conditions,WindDirDegrees,DateUTC
12:53 AM,46.0,45.0,96,29.98,6.0,Calm,Calm,-,N/A,,Clear,0,2012-11-26 08:53:00
1:53 AM,44.1,44.1,100,29.99,8.0,Calm,Calm,-,N/A,,Clear,0,2012-11-26 09:53:00
2:53 AM,45.0,43.0,93,30.00,8.0,Calm,Calm,-,N/A,,Clear,0,2012-11-26 10:53:00
3:53 AM,43.0,42.1,97,30.00,10.0,Calm,Calm,-,N/A,,Clear,0,2012-11-26 11:53:00
4:53 AM,43.0,42.1,97,30.01,10.0,Calm,Calm,-,N/A,,Clear,0,2012-11-26 12:53:00
5:53 AM,43.0,42.1,97,30.02,8.0,Calm,Calm,-,N/A,,Clear,0,2012-11-26 13:53:00
6:53 AM,44.1,42.1,93,30.04,9.0,East,3.5,-,N/A,,Clear,80,2012-11-26 14:53:00
7:53 AM,45.0,43.0,93,30.04,9.0,ESE,4.6,-,N/A,,Clear,120,2012-11-26 15:53:00
8:53 AM,50.0,46.0,86,30.05,10.0,SE,3.5,-,N/A,,Clear,140,2012-11-26 16:53:00
9:53 AM,55.0,46.9,74,30.06,10.0,Calm,Calm,-,N/A,,Clear,0,2012-11-26 17:53:00
10:53 AM,59.0,48.0,67,30.05,10.0,Calm,Calm,-,N/A,,Clear,0,2012-11-26 18:53:00
11:53 AM,64.0,46.0,52,30.02,10.0,NW,4.6,-,N/A,,Clear,320,2012-11-26 19:53:00
12:53 PM,62.1,46.9,58,30.01,10.0,WNW,9.2,-,N/A,,Clear,300,2012-11-26 20:53:00
1:53 PM,63.0,48.0,58,30.01,10.0,NW,5.8,-,N/A,,Clear,320,2012-11-26 21:53:00
2:53 PM,63.0,48.9,60,30.01,9.0,NW,6.9,-,N/A,,Clear,310,2012-11-26 22:53:00
3:53 PM,60.1,48.9,67,30.01,9.0,WNW,8.1,-,N/A,,Clear,290,2012-11-26 23:53:00
4:53 PM,57.9,51.1,78,30.02,7.0,West,4.6,-,N/A,,Clear,280,2012-11-27 00:53:00
5:53 PM,55.0,52.0,89,30.03,10.0,WNW,3.5,-,N/A,,Clear,290,2012-11-27 01:53:00
6:53 PM,54.0,52.0,93,30.04,9.0,WNW,3.5,-,N/A,,Clear,300,2012-11-27 02:53:00
7:53 PM,53.1,52.0,96,30.06,7.0,West,4.6,-,N/A,,Clear,270,2012-11-27 03:53:00
8:53 PM,53.1,52.0,96,30.08,7.0,Calm,Calm,-,N/A,,Clear,0,2012-11-27 04:53:00
9:53 PM,51.1,50.0,96,30.08,7.0,SSW,3.5,-,N/A,,Clear,200,2012-11-27 05:53:00
10:53 PM,51.1,48.9,92,30.08,8.0,Calm,Calm,-,N/A,,Clear,0,2012-11-27 06:53:00
11:44 PM,48.2,48.2,100,30.08,8.0,SE,3.5,-,N/A,,Mostly Cloudy,130,2012-11-27 07:44:00
11:53 PM,48.0,46.9,96,30.09,8.0,SE,4.6,-,N/A,,Mostly Cloudy,130,2012-11-27 07:53:00